Regional Weather Roundup
Issued by NWS

Home | Current Version | Previous Version | Graphics & Text | Print | Product List | Glossary On
Versions: 1 2 3 4 5 6 7 8 9 10 11 12 13 14 15 16 17 18 19 20 21 22 23 24 25 26 27 28 29 30 31 32 33 34 35 36 37 38 39 40 41 42 43 44 45 46 47 48 49 50
350
ASUS43 KMKX 242010
RWRWI

WISCONSIN REGIONAL WEATHER ROUNDUP
NATIONAL WEATHER SERVICE MILWAUKEE/SULLIVAN WI
200 PM CST SAT FEB 24 2018

NOTE: "FAIR" INDICATES FEW OR NO CLOUDS BELOW 12,000 FEET WITH NO
SIGNIFICANT WEATHER AND/OR OBSTRUCTIONS TO VISIBILITY.

WIZ001-002-006>008-014>016-023>028-242100-
NORTHWEST WISCONSIN

CITY           SKY/WX    TMP DP  RH WIND       PRES   REMARKS
SUPERIOR ARPT  FAIR      23  14  69 E10       30.01F WCI  12
ASHLAND        FAIR      27  18  69 NE9       30.00F WCI  18
HAYWARD        PTSUNNY   32  20  61 E8        29.94F WCI  25
SIREN          CLOUDY    31  21  64 E7        29.92F WCI  25
CUMBERLAND     CLOUDY    28  21  74 E9        29.90F WCI  20
RICE LAKE      FAIR      30  23  75 E8        29.93F WCI  22
CHETEK         PTSUNNY   31  22  71 E6        29.92F WCI  25
LADYSMITH      CLOUDY    36  22  57 E12       29.94F WCI  27
EAU CLAIRE     CLOUDY    30  24  78 E9        29.90F WCI  22
MENOMONIE      CLOUDY    28  27  96 NE5       29.92F WCI  23
NEW RICHMOND   CLOUDY    29  23  78 E7        29.89F WCI  22
OSCEOLA        FAIR      30  21  69 E13       29.93F WCI  20
$$

WIZ003>005-009-010-017-018-242100-
NORTH CENTRAL WISCONSIN

CITY           SKY/WX    TMP DP  RH WIND       PRES   REMARKS
MANITOWISH WTR FAIR      32  19  58 E6        29.95F WCI  27
ARBOR VITAE    FAIR      37  24  60 SE12      29.96S WCI  29
WOODRUFF       FAIR      37  24  60 SE12      29.96S WCI  29
RHINELANDER    CLOUDY    34  23  64 SE12      29.98F WCI  25
EAGLE RIVER    FAIR      34  18  52 SE7       29.97S WCI  28
LAND O LAKES   FAIR      36  19  51 E6        29.99F WCI  31
PHILLIPS       CLOUDY    33  20  59 SE8       29.96S WCI  26
TOMAHAWK       CLOUDY    33  23  67 E3        29.98F
MEDFORD        CLOUDY    32  23  70 E14       29.92F WCI  22
MERRILL        CLOUDY    35  24  63 E8        29.97F WCI  28
$$

WIZ029-030-035-036-043>047-242100-
CENTRAL WISCONSIN

CITY           SKY/WX    TMP DP  RH WIND       PRES   REMARKS
WAUSAU         CLOUDY    33  23  66 E10       29.95F WCI  25
MOSINEE        CLOUDY    34  25  69 E13       29.98F WCI  25
MARSHFIELD     CLOUDY    33  24  69 E15       29.92F WCI  23
STEVENS POINT  CLOUDY    32  25  74 E16       29.97F WCI  21
WAUPACA        PTSUNNY   37  28  67 E12       29.99F WCI  30
WAUTOMA        CLOUDY    34  26  72 E12G20    29.97F WCI  25
WISC RAPIDS    CLOUDY    34  23  64 SE15G25   29.95F WCI  24
CAMP DOUGLAS   CLOUDY    34  27  75 E14       29.92F WCI  24
$$

WIZ011>013-019>022-031-037>040-048>050-242100-
NORTHEAST WISCONSIN

CITY           SKY/WX    TMP DP  RH WIND       PRES   REMARKS
ANTIGO         FAIR      32  23  69 E13       29.98F WCI  23
SHAWANO        FAIR      37  27  66 E14G20    30.02F WCI  29
OCONTO         CLOUDY    34  26  72 E8        30.08S WCI  27
STURGEON BAY   PTSUNNY   34  25  69 E10       30.10R WCI  26
GREEN BAY      PTSUNNY   36  26  67 E14       30.04F WCI  27
MANITOWOC      PTSUNNY   34  27  75 E13       30.05F WCI  25
APPLETON       NOT AVBL
CLINTONVILLE   PTSUNNY   37  26  64 E10       30.02F WCI  30
OSHKOSH        CLOUDY    35  28  75 E12       29.99F WCI  27
$$

WIZ032>034-041-042-053>061-242100-
SOUTHWEST WISCONSIN

CITY           SKY/WX    TMP DP  RH WIND       PRES   REMARKS
LA CROSSE      CLOUDY    36  27  69 E13       29.88F WCI  27
SPARTA         CLOUDY    35  27  73 E16G22    29.91F WCI  24
VIROQUA        CLOUDY    33  30  90 E14       29.86F WCI  23
BOSCOBEL       CLOUDY    37  27  67 E8G17     29.88F WCI  31
PRAIRIE DU CHI CLOUDY    35  27  73 E14G21    29.85F WCI  26
PLATTEVILLE    CLOUDY    35  32  90 E20G25    29.84F WCI  24
$$

WIZ056-057-062-063-064-067-068-242100-
SOUTH CENTRAL WISCONSIN

CITY           SKY/WX    TMP DP  RH WIND       PRES   REMARKS
REEDSBURG      CLOUDY    35  28  76 E8        29.91F WCI  28
BARABOO/DELLS  CLOUDY    35  28  75 E13G18    29.92F WCI  26
LONE ROCK      CLOUDY    36  29  75 E16       29.89F WCI  26
MINERAL POINT  CLOUDY    36  32  87 E13G23    29.85F WCI  27
MADISON        CLOUDY    36  29  75 E12       29.95F WCI  28
MIDDLETON      CLOUDY    37  30  75 E15       29.92F WCI  28
WATERTOWN      CLOUDY    36  31  83 E15       29.95F WCI  26
MONROE         CLOUDY    36  32  87 E13G18    29.87F WCI  27
JANESVILLE     CLOUDY    37  34  87 E17G23    29.92F WCI  28
$$

WIZ051-052-058>065-066-070>072-242100-
SOUTHEAST WISCONSIN

CITY           SKY/WX    TMP DP  RH WIND       PRES   REMARKS
MILWAUKEE      CLOUDY    37  31  78 E16       29.98F WCI  28
WAUKESHA       CLOUDY    34  28  80 E15       29.99F WCI  24
MILWAUKEE/TIMM CLOUDY    36  27  69 E12G18    30.02F WCI  27
RACINE         CLOUDY    36  31  82 E13G22    29.99F WCI  27
BURLINGTON     CLOUDY    35  31  83 E14G20    29.96F WCI  26
KENOSHA        CLOUDY    37  31  78 E16G25    29.98F WCI  28
FOND DU LAC    CLOUDY    36  26  67 SE16      29.99F WCI  26
SHEBOYGAN      CLOUDY    35  28  75 E12       30.03F WCI  27
WEST BEND      CLOUDY    34  30  86 E10G24    29.99F WCI  26
JUNEAU         CLOUDY    34  29  82 E16       29.96F WCI  24
$$

LSZ147-162-242100-
LAKE SUPERIOR

STATION/POSITION TIME  TEMP    WIND        PRES    WAVE
                       AIR SEA DIR/SP/G            HT/PER
                 (UTC) (F)     (DEG/KT/KT) (MB)    (FT/S)
DEVILS ISLAND    2000   23      50/ 11/ 12 1018.1F
SAXON HARBOR     1930   24      20/  7/  8 1016.9F
$$

LMZ867-665-643>646-242100-
LAKE MICHIGAN

STATION/POSITION TIME  TEMP    WIND        PRES    WAVE
                       AIR SEA DIR/SP/G            HT/PER
                 (UTC) (F)     (DEG/KT/KT) (MB)    (FT/S)
NORTHPORT PIER   1940   32                 1019.3F
KEWAUNEE LAKESHO 1942   35      80/  7/ 11 1018.0F
SHEBOYGAN LAKESH 2000   33      70/ 12/ 13 1017.6F
PORT WASHINGTON  1940   36      90/ 12/ 14 1017.9F
KENOSHA   LAKESH 2000   35      90/  8/ 10 1015.2
$$

TC  - TEMPERATURE IN CELSIUS
VSB - VISIBILITY IN STATUTE MILES
WCI - WIND CHILL INDEX
HX  - HEAT INDEX





USA.gov is the U.S. government's official web portal to all federal, state and local government web resources and services.